Regional Weather Roundup
Issued by NWS

Home | Current Version | Previous Version | Text Only | Print | Product List | Glossary Off
Versions: 1 2 3 4 5 6 7 8 9 10 11 12 13 14 15 16 17 18 19 20 21 22 23 24 25 26 27 28 29 30 31 32 33 34 35 36 37 38 39 40 41 42 43 44 45 46 47

000
ASUS45 KCYS 242310
RWRWY

WYOMING REGIONAL WEATHER ROUNDUP
NATIONAL WEATHER SERVICE CHEYENNE WY
400 PM MST WED DEC 24 2014

NOTE:  "FAIR" INDICATES FEW OR NO CLOUDS BELOW 12,000 FEET
WITH NO SIGNIFICANT WEATHER AND/OR OBSTRUCTIONS TO VISIBILITY.

WYZ001-250000-
YELLOWSTONE NATIONAL PARK

CITY           SKY/WX    TMP DP  RH WIND       PRES   REMARKS
LK YELLOWSTONE   N/A     22  19  89 CALM      29.61F
W YELLOWSTONE  NOT AVBL

$$
WYZ002>013-054>058-071-098>099-250000-
NORTHERN WYOMING

CITY           SKY/WX    TMP DP  RH WIND       PRES   REMARKS
JACKSON        CLOUDY    30  25  80 SW17G23   29.62F WCI  18
CODY           FAIR      28  21  74 NE13      29.47F WCI  18
GREYBULL       FAIR      27  20  75 CALM      29.52F
WORLAND        FAIR      22  15  75 S7        29.52F WCI  13
SHERIDAN       CLOUDY    35  27  72 CALM      29.44F
BUFFALO        CLOUDY    35  23  61 CALM      29.47F
GILLETTE       FAIR      37  23  56 SW16      29.48F WCI  28
HULETT           N/A    N/A N/A N/A MISG        N/A
NEWCASTLE      FAIR      34  23  64 E5        29.54F WCI  30

$$
WYZ014>020-022>026-101>103-250000-
CENTRAL WYOMING

CITY           SKY/WX    TMP DP  RH WIND       PRES   REMARKS
BIG PINEY      MOCLDY    26  19  74 E7        29.69F WCI  18
PINEDALE       CLOUDY    27  19  74 W3        29.71F
DUBOIS         NOT AVBL
LANDER         FAIR      28  18  66 SE8       29.53F WCI  20
RIVERTON       FAIR      25  16  68 NE6       29.56F WCI  18
CASPER         FAIR      34  22  61 SW26G39   29.57F WCI  21
DOUGLAS        FAIR      41  19  41 W8        29.55F

$$
WYZ021-027>030-104>119-250000-
SOUTHERN WYOMING

CITY           SKY/WX    TMP DP  RH WIND       PRES   REMARKS
EVANSTON       FAIR      35  23  61 SW20      29.71F WCI  24
KEMMERER       MOCLDY    30  21  69 N3        29.69F
FORT BRIDGER   FAIR      40  26  58 CALM      29.72F
ROCK SPRINGS   FAIR      31  19  61 SE13      29.70F WCI  21
DIXON          FAIR      29  15  56 W3        29.83F
RAWLINS        FAIR      26  12  55 S22G31    29.74S WCI  12
SARATOGA       FAIR      32  19  59 S15       29.74F WCI  22
LARAMIE        FAIR      32  16  51 SW32G41   29.65F WCI  17
CHEYENNE       FAIR      40  17  39 W30G44    29.59F WCI  28
TORRINGTON     FAIR      43  22  43 W12       29.58F
PINE BLUFFS    FAIR      34  19  55 NW3       29.62F

$$


USA.gov is the U.S. government's official web portal to all federal, state and local government web resources and services.